M I D A S
Marine Information and Data Acquisition System
Tripno 1651 of the Zeeleeuw from 2009-03-02 07:39:02 to 2009-03-02 18:03:57
Back to CruiseResearch ActivitiesStationsMapUnderway DataData graphs

EquipmentUnitsComments
TimeDGPSUTC
LatitudeDGPSDM.mWGS84
LongitudeDGPSDM.mWGS84
SpeedMeteo Stationm/sRelative wind speed
DirectionMeteo StationdegRelative wind direction
TemperatureMeteo Stationdeg CelciusAir temperature
PressureMeteo StationPaAtmospheric pressure
HumidityMeteo Station%Relative humidity
Missing or incorrect values are displayed as -999
Metereological data collected by the RV Zeeleeuw from 2009-03-02 07:38:28 to 2009-03-02 18:13:10
Time Latitude Longitude Speed Direction Temperature Pressure Humidity
2009-03-02 07:39 51°13.674 2°55.909 -999 -999 -999 -999 -999
2009-03-02 07:40 51°13.69 2°55.824 -999 -999 -999 -999 -999
2009-03-02 07:41 51°13.697 2°55.783 -999 -999 -999 -999 -999
2009-03-02 07:42 51°13.713 2°55.75 -999 -999 -999 -999 -999
2009-03-02 07:43 51°13.76 2°55.694 -999 -999 -999 -999 -999
2009-03-02 07:44 51°13.826 2°55.644 -999 -999 -999 -999 -999
2009-03-02 07:45 51°13.89 2°55.61 -999 -999 -999 -999 -999
2009-03-02 07:46 51°13.938 2°55.607 -999 -999 -999 -999 -999
2009-03-02 07:47 51°13.951 2°55.605 -999 -999 -999 -999 -999
2009-03-02 07:48 51°13.95 2°55.602 -999 -999 -999 -999 -999
2009-03-02 07:49 51°13.964 2°55.575 -999 -999 -999 -999 -999
2009-03-02 07:50 51°14.031 2°55.508 -999 -999 -999 -999 -999
2009-03-02 07:51 51°14.127 2°55.42 -999 -999 -999 -999 -999
2009-03-02 07:52 51°14.233 2°55.305 -999 -999 -999 -999 -999
2009-03-02 07:53 51°14.334 2°55.14 -999 -999 -999 -999 -999
2009-03-02 07:54 51°14.435 2°54.948 -999 -999 -999 -999 -999
2009-03-02 07:55 51°14.555 2°54.769 -999 -999 -999 -999 -999
2009-03-02 07:56 51°14.708 2°54.61 -999 -999 -999 -999 -999
2009-03-02 07:57 51°14.872 2°54.438 -999 -999 -999 -999 -999
2009-03-02 07:58 51°15.035 2°54.26 -999 -999 -999 -999 -999
2009-03-02 07:59 51°15.197 2°54.079 -999 -999 -999 -999 -999
2009-03-02 08:00 51°15.363 2°53.904 -999 -999 -999 -999 -999
2009-03-02 08:01 51°15.528 2°53.727 -999 -999 -999 -999 -999
2009-03-02 08:02 51°15.699 2°53.562 -999 -999 -999 -999 -999
2009-03-02 08:03 51°15.874 2°53.406 -999 -999 -999 -999 -999
2009-03-02 08:04 51°16.05 2°53.248 -999 -999 -999 -999 -999
2009-03-02 08:05 51°16.232 2°53.111 -999 -999 -999 -999 -999
2009-03-02 08:06 51°16.415 2°52.977 -999 -999 -999 -999 -999
2009-03-02 08:07 51°16.598 2°52.844 -999 -999 -999 -999 -999
2009-03-02 08:08 51°16.781 2°52.712 -999 -999 -999 -999 -999
2009-03-02 08:09 51°16.964 2°52.582 -999 -999 -999 -999 -999
2009-03-02 08:10 51°17.148 2°52.453 -999 -999 -999 -999 -999
2009-03-02 08:11 51°17.332 2°52.325 -999 -999 -999 -999 -999
2009-03-02 08:12 51°17.514 2°52.199 -999 -999 -999 -999 -999
2009-03-02 08:13 51°17.699 2°52.087 -999 -999 -999 -999 -999
2009-03-02 08:14 51°17.886 2°51.991 -999 -999 -999 -999 -999
2009-03-02 08:15 51°18.074 2°51.896 -999 -999 -999 -999 -999
2009-03-02 08:16 51°18.263 2°51.804 -999 -999 -999 -999 -999
2009-03-02 08:17 51°18.453 2°51.711 -999 -999 -999 -999 -999
2009-03-02 08:18 51°18.647 2°51.621 -999 -999 -999 -999 -999
2009-03-02 08:19 51°18.84 2°51.526 -999 -999 -999 -999 -999
2009-03-02 08:20 51°19.033 2°51.429 -999 -999 -999 -999 -999
2009-03-02 08:21 51°19.222 2°51.333 -999 -999 -999 -999 -999
2009-03-02 08:22 51°19.41 2°51.236 -999 -999 -999 -999 -999
2009-03-02 08:23 51°19.598 2°51.132 -999 -999 -999 -999 -999
2009-03-02 08:24 51°19.787 2°51.026 -999 -999 -999 -999 -999
2009-03-02 08:25 51°19.974 2°50.897 -999 -999 -999 -999 -999
2009-03-02 08:26 51°20.162 2°50.768 -999 -999 -999 -999 -999
2009-03-02 08:27 51°20.33 2°50.573 -999 -999 -999 -999 -999
2009-03-02 08:28 51°20.477 2°50.33 -999 -999 -999 -999 -999
2009-03-02 08:29 51°20.62 2°50.082 -999 -999 -999 -999 -999
2009-03-02 08:30 51°20.767 2°49.843 -999 -999 -999 -999 -999
2009-03-02 08:31 51°20.922 2°49.618 -999 -999 -999 -999 -999
2009-03-02 08:32 51°21.084 2°49.405 -999 -999 -999 -999 -999
2009-03-02 08:33 51°21.246 2°49.188 -999 -999 -999 -999 -999
2009-03-02 08:34 51°21.415 2°48.984 -999 -999 -999 -999 -999
2009-03-02 08:35 51°21.589 2°48.787 -999 -999 -999 -999 -999
2009-03-02 08:36 51°21.769 2°48.607 -999 -999 -999 -999 -999
2009-03-02 08:37 51°21.952 2°48.44 -999 -999 -999 -999 -999
2009-03-02 08:38 51°22.147 2°48.346 -999 -999 -999 -999 -999
2009-03-02 08:39 51°22.345 2°48.329 -999 -999 -999 -999 -999
2009-03-02 08:40 51°22.54 2°48.366 -999 -999 -999 -999 -999
2009-03-02 08:41 51°22.735 2°48.411 -999 -999 -999 -999 -999
2009-03-02 08:42 51°22.934 2°48.434 -999 -999 -999 -999 -999
2009-03-02 08:43 51°23.133 2°48.435 -999 -999 -999 -999 -999
2009-03-02 08:44 51°23.331 2°48.429 -999 -999 -999 -999 -999
2009-03-02 08:45 51°23.529 2°48.443 -999 -999 -999 -999 -999
2009-03-02 08:46 51°23.726 2°48.466 -999 -999 -999 -999 -999
2009-03-02 08:47 51°23.922 2°48.482 -999 -999 -999 -999 -999
2009-03-02 08:48 51°24.117 2°48.496 -999 -999 -999 -999 -999
2009-03-02 08:49 51°24.316 2°48.488 -999 -999 -999 -999 -999
2009-03-02 08:50 51°24.496 2°48.478 -999 -999 -999 -999 -999
2009-03-02 08:51 51°24.657 2°48.481 -999 -999 -999 -999 -999
2009-03-02 08:52 51°24.775 2°48.477 -999 -999 -999 -999 -999
2009-03-02 08:53 51°24.876 2°48.47 -999 -999 -999 -999 -999
2009-03-02 08:54 51°24.96 2°48.48 -999 -999 -999 -999 -999
2009-03-02 08:55 51°25 2°48.507 -999 -999 -999 -999 -999
2009-03-02 08:56 51°25.007 2°48.521 -999 -999 -999 -999 -999
2009-03-02 08:57 51°25.009 2°48.532 -999 -999 -999 -999 -999
2009-03-02 08:58 51°25.01 2°48.536 -999 -999 -999 -999 -999
2009-03-02 08:59 51°25.01 2°48.533 -999 -999 -999 -999 -999
2009-03-02 09:00 51°25.008 2°48.524 -999 -999 -999 -999 -999
2009-03-02 09:01 51°25.003 2°48.514 -999 -999 -999 -999 -999
2009-03-02 09:02 51°24.998 2°48.502 -999 -999 -999 -999 -999
2009-03-02 09:03 51°24.991 2°48.49 -999 -999 -999 -999 -999
2009-03-02 09:04 51°24.98 2°48.478 -999 -999 -999 -999 -999
2009-03-02 09:05 51°24.969 2°48.462 -999 -999 -999 -999 -999
2009-03-02 09:06 51°24.957 2°48.446 -999 -999 -999 -999 -999
2009-03-02 09:07 51°24.945 2°48.429 -999 -999 -999 -999 -999
2009-03-02 09:08 51°24.981 2°48.471 -999 -999 -999 -999 -999
2009-03-02 09:09 51°25.087 2°48.568 -999 -999 -999 -999 -999
2009-03-02 09:10 51°25.213 2°48.691 -999 -999 -999 -999 -999
2009-03-02 09:11 51°25.355 2°48.834 -999 -999 -999 -999 -999
2009-03-02 09:12 51°25.51 2°48.982 -999 -999 -999 -999 -999
2009-03-02 09:13 51°25.688 2°49.102 -999 -999 -999 -999 -999
2009-03-02 09:14 51°25.869 2°49.208 -999 -999 -999 -999 -999
2009-03-02 09:15 51°26.05 2°49.314 -999 -999 -999 -999 -999
2009-03-02 09:16 51°26.231 2°49.425 -999 -999 -999 -999 -999
2009-03-02 09:17 51°26.412 2°49.538 -999 -999 -999 -999 -999
2009-03-02 09:18 51°26.591 2°49.649 -999 -999 -999 -999 -999
2009-03-02 09:19 51°26.767 2°49.762 -999 -999 -999 -999 -999
2009-03-02 09:20 51°26.946 2°49.873 -999 -999 -999 -999 -999
2009-03-02 09:21 51°27.124 2°49.988 -999 -999 -999 -999 -999
2009-03-02 09:22 51°27.301 2°50.1 -999 -999 -999 -999 -999
2009-03-02 09:23 51°27.477 2°50.212 -999 -999 -999 -999 -999
2009-03-02 09:24 51°27.654 2°50.325 -999 -999 -999 -999 -999
2009-03-02 09:25 51°27.831 2°50.434 -999 -999 -999 -999 -999
2009-03-02 09:26 51°28.007 2°50.548 -999 -999 -999 -999 -999
2009-03-02 09:27 51°28.183 2°50.663 -999 -999 -999 -999 -999
2009-03-02 09:28 51°28.359 2°50.779 -999 -999 -999 -999 -999
2009-03-02 09:29 51°28.533 2°50.892 -999 -999 -999 -999 -999
2009-03-02 09:30 51°28.709 2°51 -999 -999 -999 -999 -999
2009-03-02 09:31 51°28.885 2°51.111 -999 -999 -999 -999 -999
2009-03-02 09:32 51°29.061 2°51.221 -999 -999 -999 -999 -999
2009-03-02 09:33 51°29.237 2°51.332 -999 -999 -999 -999 -999
2009-03-02 09:34 51°29.412 2°51.447 -999 -999 -999 -999 -999
2009-03-02 09:35 51°29.588 2°51.558 -999 -999 -999 -999 -999
2009-03-02 09:36 51°29.767 2°51.668 -999 -999 -999 -999 -999
2009-03-02 09:37 51°29.943 2°51.78 -999 -999 -999 -999 -999
2009-03-02 09:38 51°30.12 2°51.894 -999 -999 -999 -999 -999
2009-03-02 09:39 51°30.295 2°52.009 -999 -999 -999 -999 -999
2009-03-02 09:40 51°30.472 2°52.124 -999 -999 -999 -999 -999
2009-03-02 09:41 51°30.649 2°52.243 -999 -999 -999 -999 -999
2009-03-02 09:42 51°30.824 2°52.362 -999 -999 -999 -999 -999
2009-03-02 09:43 51°31 2°52.479 -999 -999 -999 -999 -999
2009-03-02 09:44 51°31.176 2°52.599 -999 -999 -999 -999 -999
2009-03-02 09:45 51°31.352 2°52.718 -999 -999 -999 -999 -999
2009-03-02 09:46 51°31.527 2°52.839 -999 -999 -999 -999 -999
2009-03-02 09:47 51°31.705 2°52.957 -999 -999 -999 -999 -999
2009-03-02 09:48 51°31.881 2°53.077 -999 -999 -999 -999 -999
2009-03-02 09:49 51°32.057 2°53.195 -999 -999 -999 -999 -999
2009-03-02 09:50 51°32.229 2°53.31 -999 -999 -999 -999 -999
2009-03-02 09:51 51°32.402 2°53.419 -999 -999 -999 -999 -999
2009-03-02 09:52 51°32.575 2°53.528 -999 -999 -999 -999 -999
2009-03-02 09:53 51°32.746 2°53.638 -999 -999 -999 -999 -999
2009-03-02 09:54 51°32.917 2°53.747 -999 -999 -999 -999 -999
2009-03-02 09:55 51°33.086 2°53.859 -999 -999 -999 -999 -999
2009-03-02 09:56 51°33.256 2°53.971 -999 -999 -999 -999 -999
2009-03-02 09:57 51°33.419 2°54.101 -999 -999 -999 -999 -999
2009-03-02 09:58 51°33.551 2°54.3 -999 -999 -999 -999 -999
2009-03-02 09:59 51°33.676 2°54.515 -999 -999 -999 -999 -999
2009-03-02 10:00 51°33.804 2°54.726 -999 -999 -999 -999 -999
2009-03-02 10:01 51°33.932 2°54.93 -999 -999 -999 -999 -999
2009-03-02 10:02 51°34.059 2°55.135 -999 -999 -999 -999 -999
2009-03-02 10:03 51°34.182 2°55.345 -999 -999 -999 -999 -999
2009-03-02 10:04 51°34.25 2°55.607 -999 -999 -999 -999 -999
2009-03-02 10:05 51°34.262 2°55.903 -999 -999 -999 -999 -999
2009-03-02 10:06 51°34.273 2°56.2 -999 -999 -999 -999 -999
2009-03-02 10:07 51°34.286 2°56.495 -999 -999 -999 -999 -999
2009-03-02 10:08 51°34.329 2°56.777 -999 -999 -999 -999 -999
2009-03-02 10:09 51°34.393 2°57.053 -999 -999 -999 -999 -999
2009-03-02 10:10 51°34.449 2°57.335 -999 -999 -999 -999 -999
2009-03-02 10:11 51°34.5 2°57.619 -999 -999 -999 -999 -999
2009-03-02 10:12 51°34.549 2°57.903 -999 -999 -999 -999 -999
2009-03-02 10:13 51°34.6 2°58.189 -999 -999 -999 -999 -999
2009-03-02 10:14 51°34.651 2°58.475 -999 -999 -999 -999 -999
2009-03-02 10:15 51°34.701 2°58.763 -999 -999 -999 -999 -999
2009-03-02 10:16 51°34.751 2°59.05 -999 -999 -999 -999 -999
2009-03-02 10:17 51°34.803 2°59.33 -999 -999 -999 -999 -999
2009-03-02 10:18 51°34.846 2°59.579 -999 -999 -999 -999 -999
2009-03-02 10:19 51°34.89 2°59.822 -999 -999 -999 -999 -999
2009-03-02 10:20 51°34.929 3°0.068 -999 -999 -999 -999 -999
2009-03-02 10:21 51°34.956 3°0.253 -999 -999 -999 -999 -999
2009-03-02 10:22 51°34.966 3°0.34 -999 -999 -999 -999 -999
2009-03-02 10:23 51°34.976 3°0.375 -999 -999 -999 -999 -999
2009-03-02 10:24 51°34.994 3°0.423 -999 -999 -999 -999 -999
2009-03-02 10:25 51°34.994 3°0.477 -999 -999 -999 -999 -999
2009-03-02 10:26 51°34.989 3°0.495 -999 -999 -999 -999 -999
2009-03-02 10:27 51°34.983 3°0.5 -999 -999 -999 -999 -999
2009-03-02 10:28 51°34.97 3°0.494 -999 -999 -999 -999 -999
2009-03-02 10:29 51°34.953 3°0.481 -999 -999 -999 -999 -999
2009-03-02 10:30 51°34.932 3°0.467 -999 -999 -999 -999 -999
2009-03-02 10:31 51°34.91 3°0.452 -999 -999 -999 -999 -999
2009-03-02 10:32 51°34.887 3°0.436 -999 -999 -999 -999 -999
2009-03-02 10:33 51°34.868 3°0.422 -999 -999 -999 -999 -999
2009-03-02 10:34 51°34.89 3°0.386 -999 -999 -999 -999 -999
2009-03-02 10:35 51°34.94 3°0.208 -999 -999 -999 -999 -999
2009-03-02 10:36 51°35.029 2°59.952 -999 -999 -999 -999 -999
2009-03-02 10:37 51°35.136 2°59.674 -999 -999 -999 -999 -999
2009-03-02 10:38 51°35.247 2°59.397 -999 -999 -999 -999 -999
2009-03-02 10:39 51°35.361 2°59.123 -999 -999 -999 -999 -999
2009-03-02 10:40 51°35.483 2°58.862 -999 -999 -999 -999 -999
2009-03-02 10:41 51°35.604 2°58.596 -999 -999 -999 -999 -999
2009-03-02 10:42 51°35.718 2°58.323 -999 -999 -999 -999 -999
2009-03-02 10:43 51°35.833 2°58.052 -999 -999 -999 -999 -999
2009-03-02 10:44 51°35.949 2°57.781 -999 -999 -999 -999 -999
2009-03-02 10:45 51°36.068 2°57.511 -999 -999 -999 -999 -999
2009-03-02 10:46 51°36.184 2°57.238 -999 -999 -999 -999 -999
2009-03-02 10:47 51°36.299 2°56.965 -999 -999 -999 -999 -999
2009-03-02 10:48 51°36.417 2°56.694 -999 -999 -999 -999 -999
2009-03-02 10:49 51°36.537 2°56.427 -999 -999 -999 -999 -999
2009-03-02 10:50 51°36.666 2°56.172 -999 -999 -999 -999 -999
2009-03-02 10:51 51°36.795 2°55.919 -999 -999 -999 -999 -999
2009-03-02 10:52 51°36.921 2°55.667 -999 -999 -999 -999 -999
2009-03-02 10:53 51°37.047 2°55.42 -999 -999 -999 -999 -999
2009-03-02 10:54 51°37.168 2°55.168 -999 -999 -999 -999 -999
2009-03-02 10:55 51°37.291 2°54.92 -999 -999 -999 -999 -999
2009-03-02 10:56 51°37.416 2°54.672 -999 -999 -999 -999 -999
2009-03-02 10:57 51°37.542 2°54.423 -999 -999 -999 -999 -999
2009-03-02 10:58 51°37.671 2°54.178 -999 -999 -999 -999 -999
2009-03-02 10:59 51°37.797 2°53.928 -999 -999 -999 -999 -999
2009-03-02 11:00 51°37.926 2°53.681 -999 -999 -999 -999 -999
2009-03-02 11:01 51°38.054 2°53.433 -999 -999 -999 -999 -999
2009-03-02 11:02 51°38.182 2°53.187 -999 -999 -999 -999 -999
2009-03-02 11:03 51°38.308 2°52.937 -999 -999 -999 -999 -999
2009-03-02 11:04 51°38.436 2°52.686 -999 -999 -999 -999 -999
2009-03-02 11:05 51°38.561 2°52.433 -999 -999 -999 -999 -999
2009-03-02 11:06 51°38.684 2°52.177 -999 -999 -999 -999 -999
2009-03-02 11:07 51°38.812 2°51.927 -999 -999 -999 -999 -999
2009-03-02 11:08 51°38.936 2°51.671 -999 -999 -999 -999 -999
2009-03-02 11:09 51°39.059 2°51.421 -999 -999 -999 -999 -999
2009-03-02 11:10 51°39.188 2°51.176 -999 -999 -999 -999 -999
2009-03-02 11:11 51°39.315 2°50.927 -999 -999 -999 -999 -999
2009-03-02 11:12 51°39.437 2°50.674 -999 -999 -999 -999 -999
2009-03-02 11:13 51°39.562 2°50.432 -999 -999 -999 -999 -999
2009-03-02 11:14 51°39.687 2°50.189 -999 -999 -999 -999 -999
2009-03-02 11:15 51°39.812 2°49.943 -999 -999 -999 -999 -999
2009-03-02 11:16 51°39.934 2°49.695 -999 -999 -999 -999 -999
2009-03-02 11:17 51°40.057 2°49.447 -999 -999 -999 -999 -999
2009-03-02 11:18 51°40.18 2°49.2 -999 -999 -999 -999 -999
2009-03-02 11:19 51°40.304 2°48.956 -999 -999 -999 -999 -999
2009-03-02 11:20 51°40.44 2°48.727 -999 -999 -999 -999 -999
2009-03-02 11:21 51°40.578 2°48.497 -999 -999 -999 -999 -999
2009-03-02 11:22 51°40.716 2°48.264 -999 -999 -999 -999 -999
2009-03-02 11:23 51°40.854 2°48.033 -999 -999 -999 -999 -999
2009-03-02 11:24 51°40.994 2°47.808 -999 -999 -999 -999 -999
2009-03-02 11:25 51°41.131 2°47.577 -999 -999 -999 -999 -999
2009-03-02 11:26 51°41.271 2°47.351 -999 -999 -999 -999 -999
2009-03-02 11:27 51°41.41 2°47.123 -999 -999 -999 -999 -999
2009-03-02 11:28 51°41.545 2°46.892 -999 -999 -999 -999 -999
2009-03-02 11:29 51°41.681 2°46.662 -999 -999 -999 -999 -999
2009-03-02 11:30 51°41.815 2°46.43 -999 -999 -999 -999 -999
2009-03-02 11:31 51°41.949 2°46.204 -999 -999 -999 -999 -999
2009-03-02 11:32 51°42.086 2°45.98 -999 -999 -999 -999 -999
2009-03-02 11:33 51°42.222 2°45.756 -999 -999 -999 -999 -999
2009-03-02 11:34 51°42.359 2°45.533 -999 -999 -999 -999 -999
2009-03-02 11:35 51°42.495 2°45.307 -999 -999 -999 -999 -999
2009-03-02 11:36 51°42.63 2°45.084 -999 -999 -999 -999 -999
2009-03-02 11:37 51°42.765 2°44.859 -999 -999 -999 -999 -999
2009-03-02 11:38 51°42.901 2°44.635 -999 -999 -999 -999 -999
2009-03-02 11:39 51°43.035 2°44.408 -999 -999 -999 -999 -999
2009-03-02 11:40 51°43.171 2°44.184 -999 -999 -999 -999 -999
2009-03-02 11:41 51°43.305 2°43.958 -999 -999 -999 -999 -999
2009-03-02 11:42 51°43.44 2°43.733 -999 -999 -999 -999 -999
2009-03-02 11:43 51°43.576 2°43.512 -999 -999 -999 -999 -999
2009-03-02 11:44 51°43.713 2°43.289 -999 -999 -999 -999 -999
2009-03-02 11:45 51°43.848 2°43.064 -999 -999 -999 -999 -999
2009-03-02 11:46 51°43.982 2°42.837 -999 -999 -999 -999 -999
2009-03-02 11:47 51°44.113 2°42.606 -999 -999 -999 -999 -999
2009-03-02 11:48 51°44.255 2°42.396 -999 -999 -999 -999 -999
2009-03-02 11:49 51°44.414 2°42.236 -999 -999 -999 -999 -999
2009-03-02 11:50 51°44.577 2°42.093 -999 -999 -999 -999 -999
2009-03-02 11:51 51°44.738 2°41.946 -999 -999 -999 -999 -999
2009-03-02 11:52 51°44.886 2°41.844 -999 -999 -999 -999 -999
2009-03-02 11:53 51°44.975 2°41.942 -999 -999 -999 -999 -999
2009-03-02 11:54 51°45.016 2°41.979 -999 -999 -999 -999 -999
2009-03-02 11:55 51°45.017 2°41.982 -999 -999 -999 -999 -999
2009-03-02 11:56 51°45.006 2°41.979 -999 -999 -999 -999 -999
2009-03-02 11:57 51°44.986 2°41.969 -999 -999 -999 -999 -999
2009-03-02 11:58 51°44.961 2°41.957 -999 -999 -999 -999 -999
2009-03-02 11:59 51°44.932 2°41.944 -999 -999 -999 -999 -999
2009-03-02 12:00 51°44.903 2°41.93 -999 -999 -999 -999 -999
2009-03-02 12:01 51°44.874 2°41.918 -999 -999 -999 -999 -999
2009-03-02 12:02 51°44.847 2°41.906 -999 -999 -999 -999 -999
2009-03-02 12:03 51°44.823 2°41.898 -999 -999 -999 -999 -999
2009-03-02 12:04 51°44.831 2°41.887 -999 -999 -999 -999 -999
2009-03-02 12:05 51°44.821 2°41.78 -999 -999 -999 -999 -999
2009-03-02 12:06 51°44.733 2°41.638 -999 -999 -999 -999 -999
2009-03-02 12:07 51°44.616 2°41.415 -999 -999 -999 -999 -999
2009-03-02 12:08 51°44.472 2°41.141 -999 -999 -999 -999 -999
2009-03-02 12:09 51°44.326 2°40.861 -999 -999 -999 -999 -999
2009-03-02 12:10 51°44.159 2°40.611 -999 -999 -999 -999 -999
2009-03-02 12:11 51°43.981 2°40.379 -999 -999 -999 -999 -999
2009-03-02 12:12 51°43.81 2°40.137 -999 -999 -999 -999 -999
2009-03-02 12:13 51°43.639 2°39.893 -999 -999 -999 -999 -999
2009-03-02 12:14 51°43.473 2°39.639 -999 -999 -999 -999 -999
2009-03-02 12:15 51°43.311 2°39.38 -999 -999 -999 -999 -999
2009-03-02 12:16 51°43.149 2°39.122 -999 -999 -999 -999 -999
2009-03-02 12:17 51°42.99 2°38.864 -999 -999 -999 -999 -999
2009-03-02 12:18 51°42.828 2°38.606 -999 -999 -999 -999 -999
2009-03-02 12:19 51°42.669 2°38.349 -999 -999 -999 -999 -999
2009-03-02 12:20 51°42.512 2°38.086 -999 -999 -999 -999 -999
2009-03-02 12:21 51°42.331 2°37.875 -999 -999 -999 -999 -999
2009-03-02 12:22 51°42.125 2°37.717 -999 -999 -999 -999 -999
2009-03-02 12:23 51°41.921 2°37.557 -999 -999 -999 -999 -999
2009-03-02 12:24 51°41.715 2°37.395 -999 -999 -999 -999 -999
2009-03-02 12:25 51°41.531 2°37.184 -999 -999 -999 -999 -999
2009-03-02 12:26 51°41.378 2°36.922 -999 -999 -999 -999 -999
2009-03-02 12:27 51°41.225 2°36.653 -999 -999 -999 -999 -999
2009-03-02 12:28 51°41.068 2°36.388 -999 -999 -999 -999 -999
2009-03-02 12:29 51°40.914 2°36.12 -999 -999 -999 -999 -999
2009-03-02 12:30 51°40.758 2°35.854 -999 -999 -999 -999 -999
2009-03-02 12:31 51°40.602 2°35.589 -999 -999 -999 -999 -999
2009-03-02 12:32 51°40.445 2°35.326 -999 -999 -999 -999 -999
2009-03-02 12:33 51°40.286 2°35.06 -999 -999 -999 -999 -999
2009-03-02 12:34 51°40.132 2°34.797 -999 -999 -999 -999 -999
2009-03-02 12:35 51°39.99 2°34.528 -999 -999 -999 -999 -999
2009-03-02 12:36 51°39.863 2°34.254 -999 -999 -999 -999 -999
2009-03-02 12:37 51°39.734 2°33.965 -999 -999 -999 -999 -999
2009-03-02 12:38 51°39.61 2°33.672 -999 -999 -999 -999 -999
2009-03-02 12:39 51°39.488 2°33.381 -999 -999 -999 -999 -999
2009-03-02 12:40 51°39.381 2°33.111 -999 -999 -999 -999 -999
2009-03-02 12:41 51°39.284 2°32.848 -999 -999 -999 -999 -999
2009-03-02 12:42 51°39.197 2°32.622 -999 -999 -999 -999 -999
2009-03-02 12:43 51°39.122 2°32.43 -999 -999 -999 -999 -999
2009-03-02 12:44 51°39.065 2°32.307 -999 -999 -999 -999 -999
2009-03-02 12:45 51°39.031 2°32.265 -999 -999 -999 -999 -999
2009-03-02 12:46 51°39.02 2°32.274 -999 -999 -999 -999 -999
2009-03-02 12:47 51°39.008 2°32.275 -999 -999 -999 -999 -999
2009-03-02 12:48 51°38.995 2°32.271 -999 -999 -999 -999 -999
2009-03-02 12:49 51°38.981 2°32.263 -999 -999 -999 -999 -999
2009-03-02 12:50 51°38.966 2°32.253 -999 -999 -999 -999 -999
2009-03-02 12:51 51°38.95 2°32.243 -999 -999 -999 -999 -999
2009-03-02 12:52 51°38.945 2°32.231 -999 -999 -999 -999 -999
2009-03-02 12:53 51°38.965 2°32.211 -999 -999 -999 -999 -999
2009-03-02 12:54 51°38.995 2°32.18 -999 -999 -999 -999 -999
2009-03-02 12:55 51°39 2°32.155 -999 -999 -999 -999 -999
2009-03-02 12:56 51°38.985 2°32.205 -999 -999 -999 -999 -999
2009-03-02 12:57 51°38.998 2°32.25 -999 -999 -999 -999 -999
2009-03-02 12:58 51°39.012 2°32.284 -999 -999 -999 -999 -999
2009-03-02 12:59 51°39.016 2°32.301 -999 -999 -999 -999 -999
2009-03-02 13:00 51°39.012 2°32.307 -999 -999 -999 -999 -999
2009-03-02 13:01 51°39.002 2°32.309 -999 -999 -999 -999 -999
2009-03-02 13:02 51°38.997 2°32.309 -999 -999 -999 -999 -999
2009-03-02 13:03 51°39.003 2°32.291 -999 -999 -999 -999 -999
2009-03-02 13:04 51°39.027 2°32.262 -999 -999 -999 -999 -999
2009-03-02 13:05 51°39.037 2°32.252 -999 -999 -999 -999 -999
2009-03-02 13:06 51°39.037 2°32.245 -999 -999 -999 -999 -999
2009-03-02 13:07 51°39.032 2°32.238 -999 -999 -999 -999 -999
2009-03-02 13:08 51°39.036 2°32.24 -999 -999 -999 -999 -999
2009-03-02 13:09 51°39.042 2°32.281 -999 -999 -999 -999 -999
2009-03-02 13:10 51°39.028 2°32.329 -999 -999 -999 -999 -999
2009-03-02 13:11 51°39.01 2°32.328 -999 -999 -999 -999 -999
2009-03-02 13:12 51°38.991 2°32.33 -999 -999 -999 -999 -999
2009-03-02 13:13 51°38.974 2°32.335 -999 -999 -999 -999 -999
2009-03-02 13:14 51°38.956 2°32.343 -999 -999 -999 -999 -999
2009-03-02 13:15 51°38.94 2°32.349 -999 -999 -999 -999 -999
2009-03-02 13:16 51°38.925 2°32.355 -999 -999 -999 -999 -999
2009-03-02 13:17 51°38.916 2°32.362 -999 -999 -999 -999 -999
2009-03-02 13:18 51°38.942 2°32.33 -999 -999 -999 -999 -999
2009-03-02 13:19 51°39.009 2°32.128 -999 -999 -999 -999 -999
2009-03-02 13:20 51°39.092 2°31.847 -999 -999 -999 -999 -999
2009-03-02 13:21 51°39.172 2°31.554 -999 -999 -999 -999 -999
2009-03-02 13:22 51°39.252 2°31.271 -999 -999 -999 -999 -999
2009-03-02 13:23 51°39.34 2°30.984 -999 -999 -999 -999 -999
2009-03-02 13:24 51°39.43 2°30.711 -999 -999 -999 -999 -999
2009-03-02 13:25 51°39.523 2°30.428 -999 -999 -999 -999 -999
2009-03-02 13:26 51°39.612 2°30.153 -999 -999 -999 -999 -999
2009-03-02 13:27 51°39.703 2°29.873 -999 -999 -999 -999 -999
2009-03-02 13:28 51°39.796 2°29.59 -999 -999 -999 -999 -999
2009-03-02 13:29 51°39.885 2°29.316 -999 -999 -999 -999 -999
2009-03-02 13:30 51°39.976 2°29.032 -999 -999 -999 -999 -999
2009-03-02 13:31 51°40.056 2°28.748 -999 -999 -999 -999 -999
2009-03-02 13:32 51°40.143 2°28.457 -999 -999 -999 -999 -999
2009-03-02 13:33 51°40.227 2°28.175 -999 -999 -999 -999 -999
2009-03-02 13:34 51°40.314 2°27.885 -999 -999 -999 -999 -999
2009-03-02 13:35 51°40.398 2°27.605 -999 -999 -999 -999 -999
2009-03-02 13:36 51°40.485 2°27.321 -999 -999 -999 -999 -999
2009-03-02 13:37 51°40.566 2°27.026 -999 -999 -999 -999 -999
2009-03-02 13:38 51°40.641 2°26.737 -999 -999 -999 -999 -999
2009-03-02 13:39 51°40.717 2°26.436 -999 -999 -999 -999 -999
2009-03-02 13:40 51°40.785 2°26.145 -999 -999 -999 -999 -999
2009-03-02 13:41 51°40.848 2°25.866 -999 -999 -999 -999 -999
2009-03-02 13:42 51°40.908 2°25.608 -999 -999 -999 -999 -999
2009-03-02 13:43 51°40.957 2°25.383 -999 -999 -999 -999 -999
2009-03-02 13:44 51°40.982 2°25.245 -999 -999 -999 -999 -999
2009-03-02 13:45 51°40.991 2°25.166 -999 -999 -999 -999 -999
2009-03-02 13:46 51°41.001 2°25.144 -999 -999 -999 -999 -999
2009-03-02 13:47 51°41.006 2°25.137 -999 -999 -999 -999 -999
2009-03-02 13:48 51°41.006 2°25.137 -999 -999 -999 -999 -999
2009-03-02 13:49 51°41.002 2°25.144 -999 -999 -999 -999 -999
2009-03-02 13:50 51°40.997 2°25.157 -999 -999 -999 -999 -999
2009-03-02 13:51 51°40.99 2°25.171 -999 -999 -999 -999 -999
2009-03-02 13:52 51°40.98 2°25.187 -999 -999 -999 -999 -999
2009-03-02 13:53 51°40.969 2°25.203 -999 -999 -999 -999 -999
2009-03-02 13:54 51°40.973 2°25.218 -999 -999 -999 -999 -999
2009-03-02 13:55 51°41.052 2°25.194 -999 -999 -999 -999 -999
2009-03-02 13:56 51°41.185 2°25.163 -999 -999 -999 -999 -999
2009-03-02 13:57 51°41.298 2°25.102 -999 -999 -999 -999 -999
2009-03-02 13:58 51°41.366 2°25.072 -999 -999 -999 -999 -999
2009-03-02 13:59 51°41.394 2°25.055 -999 -999 -999 -999 -999
2009-03-02 14:00 51°41.401 2°25.048 -999 -999 -999 -999 -999
2009-03-02 14:01 51°41.393 2°25.067 -999 -999 -999 -999 -999
2009-03-02 14:02 51°41.379 2°25.093 -999 -999 -999 -999 -999
2009-03-02 14:03 51°41.369 2°25.116 -999 -999 -999 -999 -999
2009-03-02 14:04 51°41.381 2°25.113 -999 -999 -999 -999 -999
2009-03-02 14:05 51°41.388 2°25.079 -999 -999 -999 -999 -999
2009-03-02 14:06 51°41.381 2°25.056 -999 -999 -999 -999 -999
2009-03-02 14:07 51°41.374 2°25.048 -999 -999 -999 -999 -999
2009-03-02 14:08 51°41.37 2°25.061 -999 -999 -999 -999 -999
2009-03-02 14:09 51°41.365 2°25.078 -999 -999 -999 -999 -999
2009-03-02 14:10 51°41.36 2°25.083 -999 -999 -999 -999 -999
2009-03-02 14:11 51°41.352 2°25.064 -999 -999 -999 -999 -999
2009-03-02 14:12 51°41.346 2°25.055 -999 -999 -999 -999 -999
2009-03-02 14:13 51°41.343 2°25.063 -999 -999 -999 -999 -999
2009-03-02 14:14 51°41.341 2°25.075 -999 -999 -999 -999 -999
2009-03-02 14:15 51°41.34 2°25.092 -999 -999 -999 -999 -999
2009-03-02 14:16 51°41.346 2°25.1 -999 -999 -999 -999 -999
2009-03-02 14:17 51°41.364 2°25.081 -999 -999 -999 -999 -999
2009-03-02 14:18 51°41.373 2°25.07 -999 -999 -999 -999 -999
2009-03-02 14:19 51°41.381 2°25.07 -999 -999 -999 -999 -999
2009-03-02 14:20 51°41.388 2°25.076 -999 -999 -999 -999 -999
2009-03-02 14:21 51°41.394 2°25.086 -999 -999 -999 -999 -999
2009-03-02 14:22 51°41.403 2°25.098 -999 -999 -999 -999 -999
2009-03-02 14:23 51°41.416 2°25.093 -999 -999 -999 -999 -999
2009-03-02 14:24 51°41.404 2°25.044 -999 -999 -999 -999 -999
2009-03-02 14:25 51°41.312 2°25.027 -999 -999 -999 -999 -999
2009-03-02 14:26 51°41.165 2°24.931 -999 -999 -999 -999 -999
2009-03-02 14:27 51°40.971 2°24.906 -999 -999 -999 -999 -999
2009-03-02 14:28 51°40.771 2°24.927 -999 -999 -999 -999 -999
2009-03-02 14:29 51°40.572 2°24.948 -999 -999 -999 -999 -999
2009-03-02 14:30 51°40.376 2°25.006 -999 -999 -999 -999 -999
2009-03-02 14:31 51°40.188 2°25.125 -999 -999 -999 -999 -999
2009-03-02 14:32 51°40.017 2°25.291 -999 -999 -999 -999 -999
2009-03-02 14:33 51°39.838 2°25.462 -999 -999 -999 -999 -999
2009-03-02 14:34 51°39.659 2°25.623 -999 -999 -999 -999 -999
2009-03-02 14:35 51°39.491 2°25.812 -999 -999 -999 -999 -999
2009-03-02 14:36 51°39.331 2°26.023 -999 -999 -999 -999 -999
2009-03-02 14:37 51°39.176 2°26.232 -999 -999 -999 -999 -999
2009-03-02 14:38 51°39.015 2°26.448 -999 -999 -999 -999 -999
2009-03-02 14:39 51°38.855 2°26.657 -999 -999 -999 -999 -999
2009-03-02 14:40 51°38.694 2°26.864 -999 -999 -999 -999 -999
2009-03-02 14:41 51°38.538 2°27.079 -999 -999 -999 -999 -999
2009-03-02 14:42 51°38.382 2°27.29 -999 -999 -999 -999 -999
2009-03-02 14:43 51°38.224 2°27.503 -999 -999 -999 -999 -999
2009-03-02 14:44 51°38.067 2°27.716 -999 -999 -999 -999 -999
2009-03-02 14:45 51°37.902 2°27.905 -999 -999 -999 -999 -999
2009-03-02 14:46 51°37.721 2°28.043 -999 -999 -999 -999 -999
2009-03-02 14:47 51°37.535 2°28.153 -999 -999 -999 -999 -999
2009-03-02 14:48 51°37.342 2°28.231 -999 -999 -999 -999 -999
2009-03-02 14:49 51°37.151 2°28.249 -999 -999 -999 -999 -999
2009-03-02 14:50 51°36.958 2°28.238 -999 -999 -999 -999 -999
2009-03-02 14:51 51°36.774 2°28.17 -999 -999 -999 -999 -999
2009-03-02 14:52 51°36.604 2°28.052 -999 -999 -999 -999 -999
2009-03-02 14:53 51°36.437 2°27.925 -999 -999 -999 -999 -999
2009-03-02 14:54 51°36.271 2°27.798 -999 -999 -999 -999 -999
2009-03-02 14:55 51°36.104 2°27.672 -999 -999 -999 -999 -999
2009-03-02 14:56 51°35.936 2°27.551 -999 -999 -999 -999 -999
2009-03-02 14:57 51°35.766 2°27.432 -999 -999 -999 -999 -999
2009-03-02 14:58 51°35.597 2°27.309 -999 -999 -999 -999 -999
2009-03-02 14:59 51°35.43 2°27.191 -999 -999 -999 -999 -999
2009-03-02 15:00 51°35.259 2°27.072 -999 -999 -999 -999 -999
2009-03-02 15:01 51°35.09 2°26.954 -999 -999 -999 -999 -999
2009-03-02 15:02 51°34.919 2°26.836 -999 -999 -999 -999 -999
2009-03-02 15:03 51°34.749 2°26.719 -999 -999 -999 -999 -999
2009-03-02 15:04 51°34.58 2°26.6 -999 -999 -999 -999 -999
2009-03-02 15:05 51°34.411 2°26.479 -999 -999 -999 -999 -999
2009-03-02 15:06 51°34.242 2°26.356 -999 -999 -999 -999 -999
2009-03-02 15:07 51°34.073 2°26.233 -999 -999 -999 -999 -999
2009-03-02 15:08 51°33.904 2°26.107 -999 -999 -999 -999 -999
2009-03-02 15:09 51°33.733 2°25.987 -999 -999 -999 -999 -999
2009-03-02 15:10 51°33.563 2°25.869 -999 -999 -999 -999 -999
2009-03-02 15:11 51°33.393 2°25.747 -999 -999 -999 -999 -999
2009-03-02 15:12 51°33.221 2°25.627 -999 -999 -999 -999 -999
2009-03-02 15:13 51°33.054 2°25.506 -999 -999 -999 -999 -999
2009-03-02 15:14 51°32.882 2°25.377 -999 -999 -999 -999 -999
2009-03-02 15:15 51°32.713 2°25.254 -999 -999 -999 -999 -999
2009-03-02 15:16 51°32.544 2°25.137 -999 -999 -999 -999 -999
2009-03-02 15:17 51°32.376 2°25.022 -999 -999 -999 -999 -999
2009-03-02 15:18 51°32.207 2°24.909 -999 -999 -999 -999 -999
2009-03-02 15:19 51°32.043 2°24.791 -999 -999 -999 -999 -999
2009-03-02 15:20 51°31.879 2°24.675 -999 -999 -999 -999 -999
2009-03-02 15:21 51°31.714 2°24.561 -999 -999 -999 -999 -999
2009-03-02 15:22 51°31.55 2°24.448 -999 -999 -999 -999 -999
2009-03-02 15:23 51°31.384 2°24.339 -999 -999 -999 -999 -999
2009-03-02 15:24 51°31.22 2°24.228 -999 -999 -999 -999 -999
2009-03-02 15:25 51°31.059 2°24.11 -999 -999 -999 -999 -999
2009-03-02 15:26 51°30.896 2°23.998 -999 -999 -999 -999 -999
2009-03-02 15:27 51°30.734 2°23.888 -999 -999 -999 -999 -999
2009-03-02 15:28 51°30.569 2°23.782 -999 -999 -999 -999 -999
2009-03-02 15:29 51°30.406 2°23.679 -999 -999 -999 -999 -999
2009-03-02 15:30 51°30.242 2°23.575 -999 -999 -999 -999 -999
2009-03-02 15:31 51°30.079 2°23.471 -999 -999 -999 -999 -999
2009-03-02 15:32 51°29.918 2°23.365 -999 -999 -999 -999 -999
2009-03-02 15:33 51°29.758 2°23.256 -999 -999 -999 -999 -999
2009-03-02 15:34 51°29.6 2°23.139 -999 -999 -999 -999 -999
2009-03-02 15:35 51°29.455 2°22.994 -999 -999 -999 -999 -999
2009-03-02 15:36 51°29.322 2°22.824 -999 -999 -999 -999 -999
2009-03-02 15:37 51°29.188 2°22.651 -999 -999 -999 -999 -999
2009-03-02 15:38 51°29.053 2°22.482 -999 -999 -999 -999 -999
2009-03-02 15:39 51°28.916 2°22.315 -999 -999 -999 -999 -999
2009-03-02 15:40 51°28.781 2°22.146 -999 -999 -999 -999 -999
2009-03-02 15:41 51°28.644 2°21.978 -999 -999 -999 -999 -999
2009-03-02 15:42 51°28.507 2°21.814 -999 -999 -999 -999 -999
2009-03-02 15:43 51°28.381 2°21.625 -999 -999 -999 -999 -999
2009-03-02 15:44 51°28.277 2°21.444 -999 -999 -999 -999 -999
2009-03-02 15:45 51°28.185 2°21.302 -999 -999 -999 -999 -999
2009-03-02 15:46 51°28.104 2°21.185 -999 -999 -999 -999 -999
2009-03-02 15:47 51°28.054 2°21.117 -999 -999 -999 -999 -999
2009-03-02 15:48 51°28.032 2°21.093 -999 -999 -999 -999 -999
2009-03-02 15:49 51°28.021 2°21.087 -999 -999 -999 -999 -999
2009-03-02 15:50 51°28.031 2°21.087 -999 -999 -999 -999 -999
2009-03-02 15:51 51°28.052 2°21.108 -999 -999 -999 -999 -999
2009-03-02 15:52 51°28.073 2°21.15 -999 -999 -999 -999 -999
2009-03-02 15:53 51°28.092 2°21.192 -999 -999 -999 -999 -999
2009-03-02 15:54 51°28.11 2°21.235 -999 -999 -999 -999 -999
2009-03-02 15:55 51°28.13 2°21.279 -999 -999 -999 -999 -999
2009-03-02 15:56 51°28.152 2°21.321 -999 -999 -999 -999 -999
2009-03-02 15:57 51°28.21 2°21.39 -999 -999 -999 -999 -999
2009-03-02 15:58 51°28.209 2°21.579 -999 -999 -999 -999 -999
2009-03-02 15:59 51°28.131 2°21.831 -999 -999 -999 -999 -999
2009-03-02 16:00 51°28.026 2°22.117 -999 -999 -999 -999 -999
2009-03-02 16:01 51°27.923 2°22.408 -999 -999 -999 -999 -999
2009-03-02 16:02 51°27.828 2°22.708 -999 -999 -999 -999 -999
2009-03-02 16:03 51°27.736 2°23.015 -999 -999 -999 -999 -999
2009-03-02 16:04 51°27.642 2°23.322 -999 -999 -999 -999 -999
2009-03-02 16:05 51°27.53 2°23.61 -999 -999 -999 -999 -999
2009-03-02 16:06 51°27.413 2°23.893 -999 -999 -999 -999 -999
2009-03-02 16:07 51°27.294 2°24.175 -999 -999 -999 -999 -999
2009-03-02 16:08 51°27.178 2°24.452 -999 -999 -999 -999 -999
2009-03-02 16:09 51°27.069 2°24.739 -999 -999 -999 -999 -999
2009-03-02 16:10 51°26.957 2°25.022 -999 -999 -999 -999 -999
2009-03-02 16:11 51°26.849 2°25.311 -999 -999 -999 -999 -999
2009-03-02 16:12 51°26.739 2°25.597 -999 -999 -999 -999 -999
2009-03-02 16:13 51°26.629 2°25.883 -999 -999 -999 -999 -999
2009-03-02 16:14 51°26.516 2°26.164 -999 -999 -999 -999 -999
2009-03-02 16:15 51°26.402 2°26.449 -999 -999 -999 -999 -999
2009-03-02 16:16 51°26.29 2°26.732 -999 -999 -999 -999 -999
2009-03-02 16:17 51°26.178 2°27.014 -999 -999 -999 -999 -999
2009-03-02 16:18 51°26.071 2°27.303 -999 -999 -999 -999 -999
2009-03-02 16:19 51°25.965 2°27.592 -999 -999 -999 -999 -999
2009-03-02 16:20 51°25.858 2°27.88 -999 -999 -999 -999 -999
2009-03-02 16:21 51°25.748 2°28.165 -999 -999 -999 -999 -999
2009-03-02 16:22 51°25.635 2°28.448 -999 -999 -999 -999 -999
2009-03-02 16:23 51°25.521 2°28.733 -999 -999 -999 -999 -999
2009-03-02 16:24 51°25.403 2°29.026 -999 -999 -999 -999 -999
2009-03-02 16:25 51°25.286 2°29.315 -999 -999 -999 -999 -999
2009-03-02 16:26 51°25.168 2°29.599 -999 -999 -999 -999 -999
2009-03-02 16:27 51°25.054 2°29.883 -999 -999 -999 -999 -999
2009-03-02 16:28 51°24.941 2°30.17 -999 -999 -999 -999 -999
2009-03-02 16:29 51°24.832 2°30.461 -999 -999 -999 -999 -999
2009-03-02 16:30 51°24.718 2°30.747 -999 -999 -999 -999 -999
2009-03-02 16:31 51°24.598 2°31.026 -999 -999 -999 -999 -999
2009-03-02 16:32 51°24.48 2°31.304 -999 -999 -999 -999 -999
2009-03-02 16:33 51°24.368 2°31.59 -999 -999 -999 -999 -999
2009-03-02 16:34 51°24.256 2°31.88 -999 -999 -999 -999 -999
2009-03-02 16:35 51°24.14 2°32.171 -999 -999 -999 -999 -999
2009-03-02 16:36 51°24.023 2°32.466 -999 -999 -999 -999 -999
2009-03-02 16:37 51°23.898 2°32.75 -999 -999 -999 -999 -999
2009-03-02 16:38 51°23.749 2°32.982 -999 -999 -999 -999 -999
2009-03-02 16:39 51°23.593 2°33.194 -999 -999 -999 -999 -999
2009-03-02 16:40 51°23.421 2°33.34 -999 -999 -999 -999 -999
2009-03-02 16:41 51°23.243 2°33.434 -999 -999 -999 -999 -999
2009-03-02 16:42 51°23.063 2°33.502 -999 -999 -999 -999 -999
2009-03-02 16:43 51°22.881 2°33.562 -999 -999 -999 -999 -999
2009-03-02 16:44 51°22.694 2°33.611 -999 -999 -999 -999 -999
2009-03-02 16:45 51°22.508 2°33.664 -999 -999 -999 -999 -999
2009-03-02 16:46 51°22.323 2°33.738 -999 -999 -999 -999 -999
2009-03-02 16:47 51°22.171 2°33.931 -999 -999 -999 -999 -999
2009-03-02 16:48 51°22.041 2°34.188 -999 -999 -999 -999 -999
2009-03-02 16:49 51°21.915 2°34.45 -999 -999 -999 -999 -999
2009-03-02 16:50 51°21.789 2°34.713 -999 -999 -999 -999 -999
2009-03-02 16:51 51°21.666 2°34.981 -999 -999 -999 -999 -999
2009-03-02 16:52 51°21.544 2°35.247 -999 -999 -999 -999 -999
2009-03-02 16:53 51°21.424 2°35.518 -999 -999 -999 -999 -999
2009-03-02 16:54 51°21.299 2°35.784 -999 -999 -999 -999 -999
2009-03-02 16:55 51°21.172 2°36.052 -999 -999 -999 -999 -999
2009-03-02 16:56 51°21.048 2°36.323 -999 -999 -999 -999 -999
2009-03-02 16:57 51°20.924 2°36.593 -999 -999 -999 -999 -999
2009-03-02 16:58 51°20.795 2°36.857 -999 -999 -999 -999 -999
2009-03-02 16:59 51°20.666 2°37.118 -999 -999 -999 -999 -999
2009-03-02 17:00 51°20.537 2°37.377 -999 -999 -999 -999 -999
2009-03-02 17:01 51°20.407 2°37.632 -999 -999 -999 -999 -999
2009-03-02 17:02 51°20.275 2°37.889 -999 -999 -999 -999 -999
2009-03-02 17:03 51°20.141 2°38.14 -999 -999 -999 -999 -999
2009-03-02 17:04 51°20.011 2°38.395 -999 -999 -999 -999 -999
2009-03-02 17:05 51°19.878 2°38.65 -999 -999 -999 -999 -999
2009-03-02 17:06 51°19.748 2°38.899 -999 -999 -999 -999 -999
2009-03-02 17:07 51°19.621 2°39.148 -999 -999 -999 -999 -999
2009-03-02 17:08 51°19.491 2°39.39 -999 -999 -999 -999 -999
2009-03-02 17:09 51°19.362 2°39.642 -999 -999 -999 -999 -999
2009-03-02 17:10 51°19.242 2°39.903 -999 -999 -999 -999 -999
2009-03-02 17:11 51°19.121 2°40.157 -999 -999 -999 -999 -999
2009-03-02 17:12 51°19.001 2°40.419 -999 -999 -999 -999 -999
2009-03-02 17:13 51°18.879 2°40.683 -999 -999 -999 -999 -999
2009-03-02 17:14 51°18.753 2°40.949 -999 -999 -999 -999 -999
2009-03-02 17:15 51°18.623 2°41.205 -999 -999 -999 -999 -999
2009-03-02 17:16 51°18.493 2°41.459 -999 -999 -999 -999 -999
2009-03-02 17:17 51°18.363 2°41.708 -999 -999 -999 -999 -999
2009-03-02 17:18 51°18.233 2°41.957 -999 -999 -999 -999 -999
2009-03-02 17:19 51°18.1 2°42.207 -999 -999 -999 -999 -999
2009-03-02 17:20 51°17.966 2°42.459 -999 -999 -999 -999 -999
2009-03-02 17:21 51°17.835 2°42.714 -999 -999 -999 -999 -999
2009-03-02 17:22 51°17.706 2°42.971 -999 -999 -999 -999 -999
2009-03-02 17:23 51°17.581 2°43.226 -999 -999 -999 -999 -999
2009-03-02 17:24 51°17.456 2°43.48 -999 -999 -999 -999 -999
2009-03-02 17:25 51°17.327 2°43.725 -999 -999 -999 -999 -999
2009-03-02 17:26 51°17.196 2°43.966 -999 -999 -999 -999 -999
2009-03-02 17:27 51°17.073 2°44.221 -999 -999 -999 -999 -999
2009-03-02 17:28 51°16.957 2°44.488 -999 -999 -999 -999 -999
2009-03-02 17:29 51°16.845 2°44.759 -999 -999 -999 -999 -999
2009-03-02 17:30 51°16.731 2°45.023 -999 -999 -999 -999 -999
2009-03-02 17:31 51°16.612 2°45.28 -999 -999 -999 -999 -999
2009-03-02 17:32 51°16.496 2°45.54 -999 -999 -999 -999 -999
2009-03-02 17:33 51°16.393 2°45.816 -999 -999 -999 -999 -999
2009-03-02 17:34 51°16.292 2°46.093 -999 -999 -999 -999 -999
2009-03-02 17:35 51°16.197 2°46.382 -999 -999 -999 -999 -999
2009-03-02 17:36 51°16.119 2°46.694 -999 -999 -999 -999 -999
2009-03-02 17:37 51°16.048 2°47.014 -999 -999 -999 -999 -999
2009-03-02 17:38 51°15.966 2°47.329 -999 -999 -999 -999 -999
2009-03-02 17:39 51°15.885 2°47.64 -999 -999 -999 -999 -999
2009-03-02 17:40 51°15.81 2°47.954 -999 -999 -999 -999 -999
2009-03-02 17:41 51°15.742 2°48.266 -999 -999 -999 -999 -999
2009-03-02 17:42 51°15.716 2°48.595 -999 -999 -999 -999 -999
2009-03-02 17:43 51°15.695 2°48.929 -999 -999 -999 -999 -999
2009-03-02 17:44 51°15.671 2°49.263 -999 -999 -999 -999 -999
2009-03-02 17:45 51°15.633 2°49.594 -999 -999 -999 -999 -999
2009-03-02 17:46 51°15.601 2°49.926 -999 -999 -999 -999 -999
2009-03-02 17:47 51°15.572 2°50.259 -999 -999 -999 -999 -999
2009-03-02 17:48 51°15.545 2°50.589 -999 -999 -999 -999 -999
2009-03-02 17:49 51°15.502 2°50.913 -999 -999 -999 -999 -999
2009-03-02 17:50 51°15.441 2°51.23 -999 -999 -999 -999 -999
2009-03-02 17:51 51°15.378 2°51.547 -999 -999 -999 -999 -999
2009-03-02 17:52 51°15.311 2°51.864 -999 -999 -999 -999 -999
2009-03-02 17:53 51°15.257 2°52.184 -999 -999 -999 -999 -999
2009-03-02 17:54 51°15.204 2°52.505 -999 -999 -999 -999 -999
2009-03-02 17:55 51°15.147 2°52.822 -999 -999 -999 -999 -999
2009-03-02 17:56 51°15.087 2°53.135 -999 -999 -999 -999 -999
2009-03-02 17:57 51°15.031 2°53.451 -999 -999 -999 -999 -999
2009-03-02 17:58 51°14.973 2°53.76 -999 -999 -999 -999 -999
2009-03-02 17:59 51°14.875 2°54.026 -999 -999 -999 -999 -999
2009-03-02 18:00 51°14.765 2°54.276 -999 -999 -999 -999 -999
2009-03-02 18:01 51°14.65 2°54.513 -999 -999 -999 -999 -999
2009-03-02 18:02 51°14.543 2°54.73 -999 -999 -999 -999 -999
2009-03-02 18:03 51°14.418 2°54.963 -999 -999 -999 -999 -999
2009-03-02 18:04 51°14.293 2°55.191 -999 -999 -999 -999 -999
2009-03-02 18:05 51°14.189 2°55.355 -999 -999 -999 -999 -999
2009-03-02 18:06 51°14.108 2°55.429 -999 -999 -999 -999 -999
2009-03-02 18:07 51°14.009 2°55.489 -999 -999 -999 -999 -999
2009-03-02 18:08 51°13.884 2°55.572 -999 -999 -999 -999 -999
2009-03-02 18:09 51°13.783 2°55.668 -999 -999 -999 -999 -999
2009-03-02 18:10 51°13.722 2°55.77 -999 -999 -999 -999 -999
2009-03-02 18:11 51°13.68 2°55.871 -999 -999 -999 -999 -999
2009-03-02 18:12 51°13.664 2°55.951 -999 -999 -999 -999 -999